Location: Unspecified
(43.4680°N, 87.1740°E)
Time: 05:39:23
(UTC+00:00)

ADEOS II - Pass Details

Date: 17 April 2021
Orbit: 798 x 801 km, 98.6° (Epoch: 16 May)

Event Time Altitude Azimuth Distance (km) Brightness Sun altitude
Rises 20:04:14 0° 18° (NNE) 3,317 6.4 -29.9°
Reaches altitude 10° 20:06:38 10° 23° (NNE) 2,382 5.4 -29.7°
Enters shadow 20:11:45 54° 98° (E) 964 2.5 -29.2°
